OneWeb SL0198

operational
NORAD ID: 48216 Int'l Des: 2021-031 Owner: ONEWEBN Country: UK Constellation: oneweb
LEOCIRCULARPOLARONEWEB_TYPE

关于 OneWeb SL0198

正在加载描述...

实时位置

正在加载3D地球...

即将过境

高度历史

Altitude vs Time

uPlot chart will show altitude changes over time

两行轨道根数

1 48216U 21031G 25257.22360045 .00000123 00000-0 29718-3 0 9997
2 48216 87.9082 344.6676 0001848 115.6260 244.5061 13.14504683212232
Epoch: Sep 14, 2025 • Age: 30 hours

当前状态

高度 1218.2 km
速度 7.25 km/s
星下点 81.51°N, 161.3°W
发射日期 Apr 25, 2021
运行时间 4.3 years
类型 internet

技术详情

分类 Payload
质量 148.00 kg
干质量 140.00 kg
总质量 148.00 kg
长度 1.30 m
直径 1.00 m
跨度 5.00 m
形状 Trapezoid+2 pan
制造商 ONEWUS
平台类型 ARROW
阶段状态 In Orbit
所有者/国家 ONEWEBN/UK

大型星座

Loading constellations...